Regional Weather Roundup
Issued by NWS Charleston, SC

Current Version | Previous Version | Graphics & Text | Print | Product List | Glossary On
Versions: 1 2 3 4 5 6 7 8 9 10 11 12 13 14 15 16 17 18 19 20 21 22 23 24 25 26 27 28 29 30 31 32 33 34 35 36 37 38 39 40 41 42 43 44 45 46 47 48 49 50
062 ASUS42 KCHS 280213 RWRCHS REGIONAL WEATHER ROUNDUP NATIONAL WEATHER SERVICE CHARLESTON SC 1000 PM EDT SAT AUG 27 2016 NOTE: "FAIR" INDICATES FEW OR NO CLOUDS BELOW 12,000 FEET WITH NO SIGNIFICANT WEATHER AND/OR OBSTRUCTIONS TO VISIBILITY. NOT ALL STATIONS ARE QUALITY CONTROLLED. USE DATA WITH CAUTION... ESPECIALLY DEWPOINT OBSERVATIONS. SCZ027-030-031-034>040-042>050-280300- ...SOUTHEAST SOUTH CAROLINA... CITY SKY/WX TMP DP RH WIND PRES REMARKS N CHARLESTON CLEAR 79 71 76 NE5 30.10R WATERFRONT PRK N/A 82 76 82 E7 30.06R MOUNT PLEASANT FAIR 75 73 94 CALM 30.10R JOHNS ISLAND FAIR 79 73 83 CALM 30.09R PINOPOLIS N/A 81 72 74 CALM 30.03R MONCKS CORNER FAIR 73 70 88 CALM 30.11R SUMMERVILLE FAIR 77 70 78 CALM 30.11R BEAUFORT MCAS CLEAR 82 74 76 E7 30.09R BEAUFORT ARPT FAIR 81 73 78 E5 30.09R HILTON HEAD IS PTCLDY 82 75 78 VRB7 30.09R WALTERBORO CLEAR 79 72 78 E3 30.10R ALLENDALE FAIR 81 70 69 CALM 30.08R ...SOUTHERN MIDLANDS AND PEE DEE... CITY SKY/WX TMP DP RH WIND PRES REMARKS GEORGETOWN FAIR 75 72 88 CALM 30.11R KINGSTREE FAIR 75 68 78 CALM 30.10R ORANGEBURG CLEAR 81 70 69 SE3 30.10R BARNWELL NOT AVBL AIKEN FAIR 81 66 61 E5 30.14R MANNING FAIR 77 70 78 CALM 30.11R COLUMBIA PTCLDY 85 70 60 SE6 30.09R SUMTER CLOUDY 82 71 67 SE1 30.08R FLORENCE CLEAR 82 72 71 N3 30.11R MYRTLE BEACH CLEAR 81 66 61 SE8 30.11R N MYRTLE BEACH CLEAR 82 73 74 SE3 30.10R $$ GAZ063-065-086>088-099>101-113>116-118-119-134>141-150-280300- ...SOUTHEAST GEORGIA... CITY SKY/WX TMP DP RH WIND PRES REMARKS SAVANNAH ARPT PTCLDY 80 73 79 E8 30.07R HUNTER AAF CLEAR 80 78 95 NE5 30.05R FORT STEWART CLEAR 78 73 84 NE2 30.05R STATESBORO CLEAR 79 72 81 CALM 30.08R SYLVANIA NOT AVBL CLAXTON FAIR 80 74 82 E3 30.08R ...CSRA...CENTRAL AND FAR SOUTHEAST GEORGIA... CITY SKY/WX TMP DP RH WIND PRES REMARKS THOMSON CLEAR 81 74 77 MISG 30.13R AUGUSTA-BUSH CLEAR 77 71 82 SE7 30.07R AUGUSTA-DANIEL CLEAR 87 69 54 E5 30.10R HX 91 SWAINSBORO FAIR 82 64 54 SE3 30.08R VIDALIA CLEAR 81 73 78 SE3 30.08R EASTMAN FAIR 84 57 40 SE3 30.09R HAZLEHURST FAIR 83 74 73 CALM 30.06R HX 90 ALMA CLEAR 76 72 87 CALM 30.06R WAYCROSS N/A 80 78 93 NE3 30.05R JESUP FAIR 81 77 89 CALM 30.06R BAXLEY FAIR 81 77 89 CALM 30.07R BRUNSWICK CLEAR 79 77 94 E6 30.06R SAINT SIMONS PTCLDY 82 76 81 E10 30.04R $$ SCZ027-028-034-036>038-045-046-048>050-GAZ119-141-280300- ...LAKE AND SUPPLEMENTAL COASTAL OBSERVATIONS... STATION/POSITION TIME TEMP WIND PRES WAVE SWELL AIR SEA DIR/SP/G HT/PER HT/PER/DIR (UTC) (F) (DEG/KT/KT) (MB) (FT/S) (FT/S/D) WINYAH BAY NOT AVBL LAKE MURRAY 0100 88 90/ 2/ 4 1017.9R ACE BASIN NERRS NOT AVBL FORT PULASKI 0100 83 86 1018.1R SAPELO ISLAND 0100 82 70/ 5 1017.0R $$ ANZ835-935-AMZ111-154-330-350-352-354-370-450-454-472-280300- ...C-MAN AND BUOY OBSERVATIONS... STATION/POSITION TIME TEMP WIND PRES WAVE SWELL AIR SEA DIR/SP/G HT/PER HT/PER/DIR (UTC) (F) (DEG/KT/KT) (MB) (FT/S) (FT/S/D) BUOY 41004 0150 84 84 80/ 10/ 12 1018.2R 4/ 9 3/130/ 9 BUOY 41008 0150 84 85 90/ 14/ 16 1017.2R 4/10 2/110/10 FOLLY BEACH CMAN 0200 83 90/ 10/ 12 1019.3R CAPERS NEARSHORE 0108 83 85 90/ 8/ 12 1018.2R FRIPP NEARSHORE 0108 83 86 90/ 12/ 16 1017.3R STATION/POSITION TIME TEMP WIND PRES WAVE SWELL AIR SEA DIR/SP/G HT/PER HT/PER/DIR (UTC) (F) (DEG/KT/KT) (MB) (FT/S) (FT/S/D) 5E ST. MARYS GA 0101 85 N/A 4/11 2/120/11 FRYING PAN BUOY 0100 83 84 90/ 8/ 10 1018.3R BUOY 41025 0150 83 85 50/ 8/ 8 1019.1R 3/ 8 2/120/ 8 CAPE LOOKOUT NC 0200 82 60/ 4/ 5 1019.5R BUOY 41002 0150 83 84 60/ 14/ 16 1017.0R 4/ 8 3/120/ 8 BUOY 41010 NOT AVBL ST AUGUSTINE FL 0200 83 84 100/ 10/ 11 1017.1R $$

USA.gov is the U.S. government's official web portal to all federal, state and local government web resources and services.